Location: Caltech
(34.1382°N, 118.1253°W)
Time: 13:43:07
(UTC-07:00)

SO-50 - Visible Passes

Search period start: 26 June 2017 00:00
Search period end: 06 July 2017 00:00
Orbit: 623 x 665 km, 64.6° (Epoch: 26 June)

Date Brightness Start Highest point End Pass type
(mag) Time Alt. Az. Time Alt. Az. Time Alt. Az.
26 Jun ? 00:32:33 10° NW 00:33:36 15° WNW 00:33:36 15° WNW visible
26 Jun ? 23:17:00 10° NNW 23:20:27 49° N 23:20:27 49° N visible
27 Jun ? 22:03:00 10° N 22:06:06 18° NE 22:07:21 16° ENE visible
27 Jun ? 23:42:25 10° NW 23:45:00 30° WNW 23:45:00 30° WNW visible
28 Jun ? 22:27:21 10° NNW 22:31:40 43° ENE 22:31:55 42° ENE visible
29 Jun ? 00:08:58 10° WNW 00:09:34 12° WNW 00:09:34 12° WNW visible
29 Jun ? 21:14:07 10° NNE 21:16:06 13° NE 21:18:04 10° ENE visible
29 Jun ? 22:52:28 10° NW 22:56:33 64° WNW 22:56:33 64° WNW visible
30 Jun ? 21:37:50 10° N 21:41:47 29° NE 21:43:34 22° E visible
30 Jun ? 23:18:24 10° WNW 23:21:13 23° W 23:21:13 23° W visible
01 Jul ? 22:02:40 10° NNW 22:07:13 76° ENE 22:08:18 51° SE visible
02 Jul ? 20:48:29 10° N 20:51:51 20° NE 20:55:13 10° E visible
02 Jul ? 22:28:11 10° NW 22:32:24 38° WSW 22:33:04 36° SW visible
03 Jul ? 21:12:58 10° NNW 21:17:22 49° ENE 21:20:15 20° SE visible
03 Jul ? 22:55:02 10° WNW 22:57:23 14° WSW 22:57:55 14° WSW visible
04 Jul ? 21:38:11 10° NW 21:42:40 60° WSW 21:45:10 25° S visible
05 Jul ? 22:04:16 10° WNW 22:07:44 22° WSW 22:10:08 15° SSW visible
